Year,Month,Day,Hour,Minute,Value (Times are PST for insolation in W/m^2)
2013,08,01,00,00,0.00
2013,08,01,00,01,0.00
2013,08,01,00,02,0.00
2013,08,01,00,03,0.00
2013,08,01,00,04,0.00
2013,08,01,00,05,0.00
2013,08,01,00,06,0.00
2013,08,01,00,07,0.00
2013,08,01,00,08,0.00
2013,08,01,00,09,0.00
2013,08,01,00,10,0.00
2013,08,01,00,11,0.00
2013,08,01,00,12,0.00
2013,08,01,00,13,0.00
2013,08,01,00,14,0.00
2013,08,01,00,15,0.00
2013,08,01,00,16,0.00
2013,08,01,00,17,0.00
2013,08,01,00,18,0.00
2013,08,01,00,19,0.00
2013,08,01,00,20,0.00
2013,08,01,00,21,0.00
2013,08,01,00,22,0.00
2013,08,01,00,23,0.00
2013,08,01,00,24,0.00
2013,08,01,00,25,0.00
2013,08,01,00,26,0.00
2013,08,01,00,27,0.00
2013,08,01,00,28,0.00
2013,08,01,00,29,0.00
2013,08,01,00,30,0.00
2013,08,01,00,31,0.00
2013,08,01,00,32,0.00
2013,08,01,00,33,0.00
2013,08,01,00,34,0.00
2013,08,01,00,35,0.00
2013,08,01,00,36,0.00
2013,08,01,00,37,0.00
2013,08,01,00,38,0.00
2013,08,01,00,39,0.00
2013,08,01,00,40,0.00
2013,08,01,00,41,0.00
2013,08,01,00,42,0.00
2013,08,01,00,43,0.00
2013,08,01,00,44,0.00
2013,08,01,00,45,0.00
2013,08,01,00,46,0.00
2013,08,01,00,47,0.00
2013,08,01,00,48,0.00
2013,08,01,00,49,0.00
2013,08,01,00,50,0.00
2013,08,01,00,51,0.00
2013,08,01,00,52,0.00
2013,08,01,00,53,0.00
2013,08,01,00,54,0.00
2013,08,01,00,55,0.00
2013,08,01,00,56,0.00
2013,08,01,00,57,0.00
2013,08,01,00,58,0.00
2013,08,01,00,59,0.00
2013,08,01,01,00,0.00
2013,08,01,01,01,0.00
2013,08,01,01,02,0.00
2013,08,01,01,03,0.00
2013,08,01,01,04,0.00
2013,08,01,01,05,0.00
2013,08,01,01,06,0.00
2013,08,01,01,07,0.00
2013,08,01,01,08,0.00
2013,08,01,01,09,0.00
2013,08,01,01,10,0.00
2013,08,01,01,11,0.00
2013,08,01,01,12,0.00
2013,08,01,01,13,0.00
2013,08,01,01,14,0.00
2013,08,01,01,15,0.00
2013,08,01,01,16,0.00
2013,08,01,01,17,0.00
2013,08,01,01,18,0.00
2013,08,01,01,19,0.00
2013,08,01,01,20,0.00
2013,08,01,01,21,0.00
2013,08,01,01,22,0.00
2013,08,01,01,23,0.00
2013,08,01,01,24,0.00
2013,08,01,01,25,0.00
2013,08,01,01,26,0.00
2013,08,01,01,27,0.00
2013,08,01,01,28,0.00
2013,08,01,01,29,0.00
2013,08,01,01,30,0.00
2013,08,01,01,31,0.00
2013,08,01,01,32,0.00
2013,08,01,01,33,0.00
2013,08,01,01,34,0.00
2013,08,01,01,35,0.00
2013,08,01,01,36,0.00
2013,08,01,01,37,0.00
2013,08,01,01,38,0.00
2013,08,01,01,39,0.00
2013,08,01,01,40,0.00
2013,08,01,01,41,0.00
2013,08,01,01,42,0.00
2013,08,01,01,43,0.00
2013,08,01,01,44,0.00
2013,08,01,01,45,0.00
2013,08,01,01,46,0.00
2013,08,01,01,47,0.00
2013,08,01,01,48,0.00
2013,08,01,01,49,0.00
2013,08,01,01,50,0.00
2013,08,01,01,51,0.00
2013,08,01,01,52,0.00
2013,08,01,01,53,0.00
2013,08,01,01,54,0.00
2013,08,01,01,55,0.00
2013,08,01,01,56,0.00
2013,08,01,01,57,0.00
2013,08,01,01,58,0.00
2013,08,01,01,59,0.00
2013,08,01,02,00,0.00
2013,08,01,02,01,0.00
2013,08,01,02,02,0.00
2013,08,01,02,03,0.00
2013,08,01,02,04,0.00
2013,08,01,02,05,0.00
2013,08,01,02,06,0.00
2013,08,01,02,07,0.00
2013,08,01,02,08,0.00
2013,08,01,02,09,0.00
2013,08,01,02,10,0.00
2013,08,01,02,11,0.00
2013,08,01,02,12,0.00
2013,08,01,02,13,0.00
2013,08,01,02,14,0.00
2013,08,01,02,15,0.00
2013,08,01,02,16,0.00
2013,08,01,02,17,0.00
2013,08,01,02,18,0.00
2013,08,01,02,19,0.00
2013,08,01,02,20,0.00
2013,08,01,02,21,0.00
2013,08,01,02,22,0.00
2013,08,01,02,23,0.00
2013,08,01,02,24,0.00
2013,08,01,02,25,0.00
2013,08,01,02,26,0.00
2013,08,01,02,27,0.00
2013,08,01,02,28,0.00
2013,08,01,02,29,0.00
2013,08,01,02,30,0.00
2013,08,01,02,31,0.00
2013,08,01,02,32,0.00
2013,08,01,02,33,0.00
2013,08,01,02,34,0.00
2013,08,01,02,35,0.00
2013,08,01,02,36,0.00
2013,08,01,02,37,0.00
2013,08,01,02,38,0.00
2013,08,01,02,39,0.00
2013,08,01,02,40,0.00
2013,08,01,02,41,0.00
2013,08,01,02,42,0.00
2013,08,01,02,43,0.00
2013,08,01,02,44,0.00
2013,08,01,02,45,0.00
2013,08,01,02,46,0.00
2013,08,01,02,47,0.00
2013,08,01,02,48,0.00
2013,08,01,02,49,0.00
2013,08,01,02,50,0.00
2013,08,01,02,51,0.00
2013,08,01,02,52,0.00
2013,08,01,02,53,0.00
2013,08,01,02,54,0.00
2013,08,01,02,55,0.00
2013,08,01,02,56,0.00
2013,08,01,02,57,0.00
2013,08,01,02,58,0.00
2013,08,01,02,59,0.00
2013,08,01,03,00,0.00
2013,08,01,03,01,0.00
2013,08,01,03,02,0.00
2013,08,01,03,03,0.00
2013,08,01,03,04,0.00
2013,08,01,03,05,0.00
2013,08,01,03,06,0.00
2013,08,01,03,07,0.00
2013,08,01,03,08,0.00
2013,08,01,03,09,0.00
2013,08,01,03,10,0.00
2013,08,01,03,11,0.00
2013,08,01,03,12,0.00
2013,08,01,03,13,0.00
2013,08,01,03,14,0.00
2013,08,01,03,15,0.00
2013,08,01,03,16,0.00
2013,08,01,03,17,0.00
2013,08,01,03,18,0.00
2013,08,01,03,19,0.00
2013,08,01,03,20,0.00
2013,08,01,03,21,0.00
2013,08,01,03,22,0.00
2013,08,01,03,23,0.00
2013,08,01,03,24,0.00
2013,08,01,03,25,0.00
2013,08,01,03,26,0.00
2013,08,01,03,27,0.00
2013,08,01,03,28,0.00
2013,08,01,03,29,0.00
2013,08,01,03,30,0.00
2013,08,01,03,31,0.00
2013,08,01,03,32,0.00
2013,08,01,03,33,0.00
2013,08,01,03,34,0.00
2013,08,01,03,35,0.00
2013,08,01,03,36,0.00
2013,08,01,03,37,0.00
2013,08,01,03,38,0.00
2013,08,01,03,39,0.00
2013,08,01,03,40,0.00
2013,08,01,03,41,0.00
2013,08,01,03,42,0.00
2013,08,01,03,43,0.00
2013,08,01,03,44,0.00
2013,08,01,03,45,0.00
2013,08,01,03,46,0.00
2013,08,01,03,47,0.00
2013,08,01,03,48,0.00
2013,08,01,03,49,0.00
2013,08,01,03,50,0.00
2013,08,01,03,51,0.00
2013,08,01,03,52,0.00
2013,08,01,03,53,0.00
2013,08,01,03,54,0.00
2013,08,01,03,55,0.00
2013,08,01,03,56,0.00
2013,08,01,03,57,0.00
2013,08,01,03,58,0.00
2013,08,01,03,59,0.00
2013,08,01,04,00,0.00
2013,08,01,04,01,0.00
2013,08,01,04,02,0.00
2013,08,01,04,03,0.00
2013,08,01,04,04,0.00
2013,08,01,04,05,0.00
2013,08,01,04,06,0.00
2013,08,01,04,07,0.00
2013,08,01,04,08,0.00
2013,08,01,04,09,0.00
2013,08,01,04,10,0.00
2013,08,01,04,11,0.00
2013,08,01,04,12,0.00
2013,08,01,04,13,0.00
2013,08,01,04,14,0.00
2013,08,01,04,15,0.00
2013,08,01,04,16,0.00
2013,08,01,04,17,0.00
2013,08,01,04,18,0.00
2013,08,01,04,19,0.00
2013,08,01,04,20,0.00
2013,08,01,04,21,0.00
2013,08,01,04,22,0.00
2013,08,01,04,23,0.00
2013,08,01,04,24,0.00
2013,08,01,04,25,0.00
2013,08,01,04,26,0.00
2013,08,01,04,27,0.00
2013,08,01,04,28,0.00
2013,08,01,04,29,0.00
2013,08,01,04,30,0.00
2013,08,01,04,31,0.00
2013,08,01,04,32,0.00
2013,08,01,04,33,0.00
2013,08,01,04,34,0.00
2013,08,01,04,35,0.00
2013,08,01,04,36,0.00
2013,08,01,04,37,0.00
2013,08,01,04,38,0.00
2013,08,01,04,39,0.00
2013,08,01,04,40,0.00
2013,08,01,04,41,0.00
2013,08,01,04,42,0.00
2013,08,01,04,43,0.00
2013,08,01,04,44,0.00
2013,08,01,04,45,0.00
2013,08,01,04,46,0.00
2013,08,01,04,47,0.00
2013,08,01,04,48,0.00
2013,08,01,04,49,0.00
2013,08,01,04,50,0.00
2013,08,01,04,51,0.00
2013,08,01,04,52,0.00
2013,08,01,04,53,0.00
2013,08,01,04,54,0.00
2013,08,01,04,55,0.00
2013,08,01,04,56,0.00
2013,08,01,04,57,0.00
2013,08,01,04,58,0.00
2013,08,01,04,59,0.00
2013,08,01,05,00,0.00
2013,08,01,05,01,0.00
2013,08,01,05,02,0.00
2013,08,01,05,03,0.00
2013,08,01,05,04,0.00
2013,08,01,05,05,0.00
2013,08,01,05,06,0.00
2013,08,01,05,07,0.00
2013,08,01,05,08,0.00
2013,08,01,05,09,0.00
2013,08,01,05,10,0.00
2013,08,01,05,11,0.00
2013,08,01,05,12,0.00
2013,08,01,05,13,0.00
2013,08,01,05,14,0.00
2013,08,01,05,15,0.00
2013,08,01,05,16,0.00
2013,08,01,05,17,0.00
2013,08,01,05,18,0.00
2013,08,01,05,19,0.00
2013,08,01,05,20,0.00
2013,08,01,05,21,0.00
2013,08,01,05,22,0.00
2013,08,01,05,23,0.00
2013,08,01,05,24,0.00
2013,08,01,05,25,0.00
2013,08,01,05,26,0.00
2013,08,01,05,27,0.00
2013,08,01,05,28,0.00
2013,08,01,05,29,0.00
2013,08,01,05,30,0.00
2013,08,01,05,31,0.00
2013,08,01,05,32,0.00
2013,08,01,05,33,0.00
2013,08,01,05,34,0.00
2013,08,01,05,35,0.00
2013,08,01,05,36,0.00
2013,08,01,05,37,0.00
2013,08,01,05,38,0.00
2013,08,01,05,39,0.00
2013,08,01,05,40,0.00
2013,08,01,05,41,0.00
2013,08,01,05,42,0.00
2013,08,01,05,43,0.00
2013,08,01,05,44,0.00
2013,08,01,05,45,0.00
2013,08,01,05,46,0.00
2013,08,01,05,47,0.00
2013,08,01,05,48,0.00
2013,08,01,05,49,0.00
2013,08,01,05,50,0.00
2013,08,01,05,51,0.00
2013,08,01,05,52,0.00
2013,08,01,05,53,0.00
2013,08,01,05,54,0.00
2013,08,01,05,55,0.00
2013,08,01,05,56,0.00
2013,08,01,05,57,0.00
2013,08,01,05,58,0.00
2013,08,01,05,59,0.00
2013,08,01,06,00,0.00
2013,08,01,06,01,0.00
2013,08,01,06,02,0.00
2013,08,01,06,03,0.00
2013,08,01,06,04,0.00
2013,08,01,06,05,0.00
2013,08,01,06,06,0.00
2013,08,01,06,07,0.00
2013,08,01,06,08,0.00
2013,08,01,06,09,0.00
2013,08,01,06,10,0.00
2013,08,01,06,11,1.40
2013,08,01,06,12,5.00
2013,08,01,06,13,5.00
2013,08,01,06,14,5.00
2013,08,01,06,15,5.00
2013,08,01,06,16,6.20
2013,08,01,06,17,7.00
2013,08,01,06,18,7.00
2013,08,01,06,19,7.00
2013,08,01,06,20,8.70
2013,08,01,06,21,10.80
2013,08,01,06,22,11.00
2013,08,01,06,23,12.20
2013,08,01,06,24,14.00
2013,08,01,06,25,14.50
2013,08,01,06,26,16.00
2013,08,01,06,27,16.00
2013,08,01,06,28,16.00
2013,08,01,06,29,16.00
2013,08,01,06,30,17.00
2013,08,01,06,31,18.60
2013,08,01,06,32,19.00
2013,08,01,06,33,20.40
2013,08,01,06,34,22.60
2013,08,01,06,35,23.00
2013,08,01,06,36,24.80
2013,08,01,06,37,25.00
2013,08,01,06,38,25.00
2013,08,01,06,39,25.00
2013,08,01,06,40,25.00
2013,08,01,06,41,25.00
2013,08,01,06,42,25.00
2013,08,01,06,43,25.00
2013,08,01,06,44,25.00
2013,08,01,06,45,23.90
2013,08,01,06,46,23.00
2013,08,01,06,47,23.00
2013,08,01,06,48,24.50
2013,08,01,06,49,25.00
2013,08,01,06,50,23.30
2013,08,01,06,51,23.00
2013,08,01,06,52,23.10
2013,08,01,06,53,25.00
2013,08,01,06,54,25.20
2013,08,01,06,55,27.00
2013,08,01,06,56,30.90
2013,08,01,06,57,33.70
2013,08,01,06,58,35.90
2013,08,01,06,59,37.00
2013,08,01,07,00,37.00
2013,08,01,07,01,37.00
2013,08,01,07,02,37.00
2013,08,01,07,03,35.50
2013,08,01,07,04,33.40
2013,08,01,07,05,33.00
2013,08,01,07,06,32.10
2013,08,01,07,07,33.00
2013,08,01,07,08,33.40
2013,08,01,07,09,37.40
2013,08,01,07,10,39.20
2013,08,01,07,11,40.00
2013,08,01,07,12,40.00
2013,08,01,07,13,40.00
2013,08,01,07,14,41.00
2013,08,01,07,15,43.10
2013,08,01,07,16,45.20
2013,08,01,07,17,46.70
2013,08,01,07,18,48.50
2013,08,01,07,19,47.40
2013,08,01,07,20,47.00
2013,08,01,07,21,46.10
2013,08,01,07,22,43.90
2013,08,01,07,23,42.00
2013,08,01,07,24,41.60
2013,08,01,07,25,40.00
2013,08,01,07,26,39.70
2013,08,01,07,27,39.00
2013,08,01,07,28,39.00
2013,08,01,07,29,39.00
2013,08,01,07,30,39.50
2013,08,01,07,31,41.20
2013,08,01,07,32,43.30
2013,08,01,07,33,45.50
2013,08,01,07,34,48.40
2013,08,01,07,35,52.40
2013,08,01,07,36,53.90
2013,08,01,07,37,54.00
2013,08,01,07,38,53.70
2013,08,01,07,39,50.30
2013,08,01,07,40,46.30
2013,08,01,07,41,44.60
2013,08,01,07,42,46.40
2013,08,01,07,43,48.70
2013,08,01,07,44,52.00
2013,08,01,07,45,53.50
2013,08,01,07,46,56.50
2013,08,01,07,47,60.70
2013,08,01,07,48,62.70
2013,08,01,07,49,63.00
2013,08,01,07,50,63.00
2013,08,01,07,51,66.60
2013,08,01,07,52,66.90
2013,08,01,07,53,65.00
2013,08,01,07,54,64.60
2013,08,01,07,55,63.00
2013,08,01,07,56,63.00
2013,08,01,07,57,63.00
2013,08,01,07,58,64.70
2013,08,01,07,59,68.40
2013,08,01,08,00,72.20
2013,08,01,08,01,75.20
2013,08,01,08,02,76.70
2013,08,01,08,03,77.00
2013,08,01,08,04,78.60
2013,08,01,08,05,79.00
2013,08,01,08,06,82.60
2013,08,01,08,07,88.30
2013,08,01,08,08,95.00
2013,08,01,08,09,99.70
2013,08,01,08,10,124.10
2013,08,01,08,11,136.20
2013,08,01,08,12,141.40
2013,08,01,08,13,140.70
2013,08,01,08,14,134.70
2013,08,01,08,15,127.30
2013,08,01,08,16,122.50
2013,08,01,08,17,120.30
2013,08,01,08,18,118.50
2013,08,01,08,19,116.40
2013,08,01,08,20,116.00
2013,08,01,08,21,117.80
2013,08,01,08,22,119.80
2013,08,01,08,23,115.10
2013,08,01,08,24,106.50
2013,08,01,08,25,105.70
2013,08,01,08,26,115.60
2013,08,01,08,27,130.60
2013,08,01,08,28,139.10
2013,08,01,08,29,144.90
2013,08,01,08,30,153.50
2013,08,01,08,31,162.30
2013,08,01,08,32,166.30
2013,08,01,08,33,161.90
2013,08,01,08,34,154.30
2013,08,01,08,35,148.70
2013,08,01,08,36,146.20
2013,08,01,08,37,138.80
2013,08,01,08,38,135.00
2013,08,01,08,39,136.10
2013,08,01,08,40,140.50
2013,08,01,08,41,139.60
2013,08,01,08,42,141.00
2013,08,01,08,43,143.10
2013,08,01,08,44,153.60
2013,08,01,08,45,166.90
2013,08,01,08,46,171.00
2013,08,01,08,47,167.00
2013,08,01,08,48,167.90
2013,08,01,08,49,170.60
2013,08,01,08,50,163.30
2013,08,01,08,51,160.20
2013,08,01,08,52,154.70
2013,08,01,08,53,148.70
2013,08,01,08,54,145.60
2013,08,01,08,55,144.00
2013,08,01,08,56,145.40
2013,08,01,08,57,149.00
2013,08,01,08,58,146.90
2013,08,01,08,59,142.60
2013,08,01,09,00,136.10
2013,08,01,09,01,122.90
2013,08,01,09,02,114.70
2013,08,01,09,03,113.00
2013,08,01,09,04,115.40
2013,08,01,09,05,117.70
2013,08,01,09,06,118.00
2013,08,01,09,07,118.10
2013,08,01,09,08,120.10
2013,08,01,09,09,120.50
2013,08,01,09,10,117.50
2013,08,01,09,11,116.00
2013,08,01,09,12,116.00
2013,08,01,09,13,118.10
2013,08,01,09,14,122.00
2013,08,01,09,15,125.90
2013,08,01,09,16,134.80
2013,08,01,09,17,145.80
2013,08,01,09,18,158.90
2013,08,01,09,19,169.30
2013,08,01,09,20,175.30
2013,08,01,09,21,169.30
2013,08,01,09,22,167.20
2013,08,01,09,23,169.80
2013,08,01,09,24,161.60
2013,08,01,09,25,159.50
2013,08,01,09,26,156.40
2013,08,01,09,27,152.20
2013,08,01,09,28,151.90
2013,08,01,09,29,154.00
2013,08,01,09,30,155.60
2013,08,01,09,31,151.70
2013,08,01,09,32,147.00
2013,08,01,09,33,146.00
2013,08,01,09,34,147.60
2013,08,01,09,35,148.90
2013,08,01,09,36,150.90
2013,08,01,09,37,150.90
2013,08,01,09,38,149.00
2013,08,01,09,39,149.00
2013,08,01,09,40,148.30
2013,08,01,09,41,146.00
2013,08,01,09,42,146.80
2013,08,01,09,43,148.00
2013,08,01,09,44,149.50
2013,08,01,09,45,153.30
2013,08,01,09,46,153.80
2013,08,01,09,47,155.00
2013,08,01,09,48,159.00
2013,08,01,09,49,158.40
2013,08,01,09,50,155.40
2013,08,01,09,51,153.10
2013,08,01,09,52,152.70
2013,08,01,09,53,146.30
2013,08,01,09,54,146.90
2013,08,01,09,55,142.00
2013,08,01,09,56,143.30
2013,08,01,09,57,147.10
2013,08,01,09,58,151.60
2013,08,01,09,59,155.50
2013,08,01,10,00,156.00
2013,08,01,10,01,157.30
2013,08,01,10,02,156.60
2013,08,01,10,03,160.60
2013,08,01,10,04,164.40
2013,08,01,10,05,163.30
2013,08,01,10,06,170.60
2013,08,01,10,07,172.00
2013,08,01,10,08,169.80
2013,08,01,10,09,160.30
2013,08,01,10,10,152.00
2013,08,01,10,11,149.60
2013,08,01,10,12,150.20
2013,08,01,10,13,149.00
2013,08,01,10,14,151.00
2013,08,01,10,15,158.10
2013,08,01,10,16,165.10
2013,08,01,10,17,165.60
2013,08,01,10,18,163.50
2013,08,01,10,19,162.20
2013,08,01,10,20,160.30
2013,08,01,10,21,160.00
2013,08,01,10,22,165.10
2013,08,01,10,23,166.70
2013,08,01,10,24,165.80
2013,08,01,10,25,170.70
2013,08,01,10,26,177.00
2013,08,01,10,27,177.90
2013,08,01,10,28,176.90
2013,08,01,10,29,178.00
2013,08,01,10,30,179.70
2013,08,01,10,31,183.50
2013,08,01,10,32,185.70
2013,08,01,10,33,187.50
2013,08,01,10,34,196.90
2013,08,01,10,35,209.40
2013,08,01,10,36,220.50
2013,08,01,10,37,232.00
2013,08,01,10,38,231.30
2013,08,01,10,39,226.20
2013,08,01,10,40,221.30
2013,08,01,10,41,214.40
2013,08,01,10,42,210.20
2013,08,01,10,43,209.90
2013,08,01,10,44,212.50
2013,08,01,10,45,219.10
2013,08,01,10,46,229.80
2013,08,01,10,47,245.60
2013,08,01,10,48,268.50
2013,08,01,10,49,311.20
2013,08,01,10,50,362.30
2013,08,01,10,51,414.70
2013,08,01,10,52,402.20
2013,08,01,10,53,361.90
2013,08,01,10,54,333.00
2013,08,01,10,55,321.20
2013,08,01,10,56,328.50
2013,08,01,10,57,337.10
2013,08,01,10,58,342.90
2013,08,01,10,59,353.50
2013,08,01,11,00,361.90
2013,08,01,11,01,357.20
2013,08,01,11,02,342.80
2013,08,01,11,03,328.10
2013,08,01,11,04,328.20
2013,08,01,11,05,339.40
2013,08,01,11,06,351.50
2013,08,01,11,07,340.90
2013,08,01,11,08,293.00
2013,08,01,11,09,251.40
2013,08,01,11,10,236.20
2013,08,01,11,11,243.70
2013,08,01,11,12,269.40
2013,08,01,11,13,299.60
2013,08,01,11,14,322.50
2013,08,01,11,15,337.40
2013,08,01,11,16,347.50
2013,08,01,11,17,355.00
2013,08,01,11,18,358.50
2013,08,01,11,19,359.00
2013,08,01,11,20,355.50
2013,08,01,11,21,353.10
2013,08,01,11,22,349.70
2013,08,01,11,23,341.80
2013,08,01,11,24,332.30
2013,08,01,11,25,323.80
2013,08,01,11,26,321.00
2013,08,01,11,27,323.00
2013,08,01,11,28,317.50
2013,08,01,11,29,302.10
2013,08,01,11,30,288.90
2013,08,01,11,31,283.80
2013,08,01,11,32,286.40
2013,08,01,11,33,294.90
2013,08,01,11,34,302.70
2013,08,01,11,35,307.50
2013,08,01,11,36,310.90
2013,08,01,11,37,313.10
2013,08,01,11,38,315.00
2013,08,01,11,39,313.70
2013,08,01,11,40,306.30
2013,08,01,11,41,299.70
2013,08,01,11,42,296.20
2013,08,01,11,43,295.00
2013,08,01,11,44,298.50
2013,08,01,11,45,305.40
2013,08,01,11,46,308.00
2013,08,01,11,47,305.30
2013,08,01,11,48,298.70
2013,08,01,11,49,278.40
2013,08,01,11,50,247.20
2013,08,01,11,51,224.00
2013,08,01,11,52,223.80
2013,08,01,11,53,242.10
2013,08,01,11,54,267.00
2013,08,01,11,55,291.30
2013,08,01,11,56,302.00
2013,08,01,11,57,300.90
2013,08,01,11,58,299.00
2013,08,01,11,59,306.00
2013,08,01,12,00,330.10
2013,08,01,12,01,360.30
2013,08,01,12,02,384.00
2013,08,01,12,03,398.40
2013,08,01,12,04,405.00
2013,08,01,12,05,404.30
2013,08,01,12,06,396.40
2013,08,01,12,07,383.50
2013,08,01,12,08,346.30
2013,08,01,12,09,300.40
2013,08,01,12,10,289.60
2013,08,01,12,11,314.00
2013,08,01,12,12,343.30
2013,08,01,12,13,342.60
2013,08,01,12,14,314.50
2013,08,01,12,15,287.60
2013,08,01,12,16,278.40
2013,08,01,12,17,284.40
2013,08,01,12,18,303.00
2013,08,01,12,19,332.50
2013,08,01,12,20,363.30
2013,08,01,12,21,404.10
2013,08,01,12,22,446.60
2013,08,01,12,23,482.60
2013,08,01,12,24,513.90
2013,08,01,12,25,520.30
2013,08,01,12,26,509.00
2013,08,01,12,27,480.40
2013,08,01,12,28,450.90
2013,08,01,12,29,460.10
2013,08,01,12,30,495.90
2013,08,01,12,31,541.00
2013,08,01,12,32,582.00
2013,08,01,12,33,612.60
2013,08,01,12,34,623.10
2013,08,01,12,35,611.30
2013,08,01,12,36,636.70
2013,08,01,12,37,665.90
2013,08,01,12,38,605.30
2013,08,01,12,39,541.70
2013,08,01,12,40,516.00
2013,08,01,12,41,512.00
2013,08,01,12,42,545.50
2013,08,01,12,43,587.00
2013,08,01,12,44,719.50
2013,08,01,12,45,840.00
2013,08,01,12,46,1061.40
2013,08,01,12,47,1188.00
2013,08,01,12,48,1188.00
2013,08,01,12,49,1188.00
2013,08,01,12,50,771.80
2013,08,01,12,51,769.90
2013,08,01,12,52,772.00
2013,08,01,12,53,741.30
2013,08,01,12,54,556.60
2013,08,01,12,55,555.00
2013,08,01,12,56,555.00
2013,08,01,12,57,545.10
2013,08,01,12,58,557.20
2013,08,01,12,59,591.00
2013,08,01,13,00,591.00
2013,08,01,13,01,591.00
2013,08,01,13,02,591.00
2013,08,01,13,03,591.00
2013,08,01,13,04,591.00
2013,08,01,13,05,591.00
2013,08,01,13,06,585.30
2013,08,01,13,07,585.00
2013,08,01,13,08,585.00
2013,08,01,13,09,585.00
2013,08,01,13,10,585.00
2013,08,01,13,11,585.00
2013,08,01,13,12,585.00
2013,08,01,13,13,718.60
2013,08,01,13,14,880.00
2013,08,01,13,15,852.40
2013,08,01,13,16,870.60
2013,08,01,13,17,892.30
2013,08,01,13,18,883.40
2013,08,01,13,19,883.50
2013,08,01,13,20,903.00
2013,08,01,13,21,905.00
2013,08,01,13,22,904.40
2013,08,01,13,23,897.30
2013,08,01,13,24,899.70
2013,08,01,13,25,928.00
2013,08,01,13,26,874.70
2013,08,01,13,27,747.80
2013,08,01,13,28,715.00
2013,08,01,13,29,804.60
2013,08,01,13,30,878.00
2013,08,01,13,31,857.80
2013,08,01,13,32,840.80
2013,08,01,13,33,832.40
2013,08,01,13,34,828.50
2013,08,01,13,35,819.90
2013,08,01,13,36,812.30
2013,08,01,13,37,788.00
2013,08,01,13,38,790.00
2013,08,01,13,39,803.90
2013,08,01,13,40,811.50
2013,08,01,13,41,812.00
2013,08,01,13,42,817.90
2013,08,01,13,43,820.10
2013,08,01,13,44,819.00
2013,08,01,13,45,817.90
2013,08,01,13,46,818.30
2013,08,01,13,47,816.90
2013,08,01,13,48,818.30
2013,08,01,13,49,822.30
2013,08,01,13,50,823.90
2013,08,01,13,51,823.00
2013,08,01,13,52,819.20
2013,08,01,13,53,821.00
2013,08,01,13,54,821.40
2013,08,01,13,55,823.00
2013,08,01,13,56,821.70
2013,08,01,13,57,819.00
2013,08,01,13,58,817.60
2013,08,01,13,59,816.00
2013,08,01,14,00,814.90
2013,08,01,14,01,812.70
2013,08,01,14,02,812.00
2013,08,01,14,03,813.50
2013,08,01,14,04,815.60
2013,08,01,14,05,814.30
2013,08,01,14,06,812.10
2013,08,01,14,07,812.00
2013,08,01,14,08,812.00
2013,08,01,14,09,812.00
2013,08,01,14,10,812.00
2013,08,01,14,11,811.30
2013,08,01,14,12,809.60
2013,08,01,14,13,809.40
2013,08,01,14,14,812.00
2013,08,01,14,15,814.00
2013,08,01,14,16,812.70
2013,08,01,14,17,814.90
2013,08,01,14,18,816.00
2013,08,01,14,19,812.70
2013,08,01,14,20,805.70
2013,08,01,14,21,803.10
2013,08,01,14,22,801.60
2013,08,01,14,23,798.00
2013,08,01,14,24,798.00
2013,08,01,14,25,798.00
2013,08,01,14,26,798.00
2013,08,01,14,27,797.20
2013,08,01,14,28,796.00
2013,08,01,14,29,796.00
2013,08,01,14,30,795.40
2013,08,01,14,31,795.60
2013,08,01,14,32,795.30
2013,08,01,14,33,793.50
2013,08,01,14,34,793.00
2013,08,01,14,35,793.00
2013,08,01,14,36,791.10
2013,08,01,14,37,791.00
2013,08,01,14,38,790.70
2013,08,01,14,39,789.00
2013,08,01,14,40,789.00
2013,08,01,14,41,788.00
2013,08,01,14,42,785.20
2013,08,01,14,43,784.90
2013,08,01,14,44,786.00
2013,08,01,14,45,786.00
2013,08,01,14,46,796.80
2013,08,01,14,47,763.00
2013,08,01,14,48,747.00
2013,08,01,14,49,747.00
2013,08,01,14,50,795.00
2013,08,01,14,51,828.60
2013,08,01,14,52,797.80
2013,08,01,14,53,756.00
2013,08,01,14,54,756.00
2013,08,01,14,55,771.40
2013,08,01,14,56,810.00
2013,08,01,14,57,810.00
2013,08,01,14,58,810.00
2013,08,01,14,59,616.70
2013,08,01,15,00,443.30
2013,08,01,15,01,468.50
2013,08,01,15,02,469.10
2013,08,01,15,03,428.50
2013,08,01,15,04,407.70
2013,08,01,15,05,391.50
2013,08,01,15,06,338.60
2013,08,01,15,07,267.60
2013,08,01,15,08,274.30
2013,08,01,15,09,271.70
2013,08,01,15,10,261.90
2013,08,01,15,11,278.70
2013,08,01,15,12,281.50
2013,08,01,15,13,274.60
2013,08,01,15,14,271.70
2013,08,01,15,15,290.10
2013,08,01,15,16,331.90
2013,08,01,15,17,332.10
2013,08,01,15,18,287.60
2013,08,01,15,19,268.30
2013,08,01,15,20,296.00
2013,08,01,15,21,346.60
2013,08,01,15,22,367.60
2013,08,01,15,23,374.10
2013,08,01,15,24,376.00
2013,08,01,15,25,347.30
2013,08,01,15,26,314.70
2013,08,01,15,27,300.00
2013,08,01,15,28,295.60
2013,08,01,15,29,323.30
2013,08,01,15,30,371.60
2013,08,01,15,31,417.00
2013,08,01,15,32,412.60
2013,08,01,15,33,395.30
2013,08,01,15,34,369.10
2013,08,01,15,35,359.50
2013,08,01,15,36,397.10
2013,08,01,15,37,443.00
2013,08,01,15,38,439.40
2013,08,01,15,39,406.00
2013,08,01,15,40,336.70
2013,08,01,15,41,275.70
2013,08,01,15,42,259.80
2013,08,01,15,43,304.50
2013,08,01,15,44,376.10
2013,08,01,15,45,439.30
2013,08,01,15,46,470.30
2013,08,01,15,47,452.10
2013,08,01,15,48,395.10
2013,08,01,15,49,325.30
2013,08,01,15,50,303.30
2013,08,01,15,51,389.80
2013,08,01,15,52,410.20
2013,08,01,15,53,564.00
2013,08,01,15,54,564.00
2013,08,01,15,55,462.00
2013,08,01,15,56,209.30
2013,08,01,15,57,242.20
2013,08,01,15,58,283.00
2013,08,01,15,59,381.50
2013,08,01,16,00,428.50
2013,08,01,16,01,343.70
2013,08,01,16,02,276.00
2013,08,01,16,03,258.50
2013,08,01,16,04,304.60
2013,08,01,16,05,384.70
2013,08,01,16,06,415.90
2013,08,01,16,07,418.50
2013,08,01,16,08,397.70
2013,08,01,16,09,351.60
2013,08,01,16,10,316.00
2013,08,01,16,11,333.70
2013,08,01,16,12,387.30
2013,08,01,16,13,408.80
2013,08,01,16,14,378.00
2013,08,01,16,15,355.50
2013,08,01,16,16,380.30
2013,08,01,16,17,455.40
2013,08,01,16,18,455.60
2013,08,01,16,19,370.30
2013,08,01,16,20,319.50
2013,08,01,16,21,354.60
2013,08,01,16,22,422.00
2013,08,01,16,23,386.70
2013,08,01,16,24,340.50
2013,08,01,16,25,341.70
2013,08,01,16,26,378.30
2013,08,01,16,27,408.70
2013,08,01,16,28,418.40
2013,08,01,16,29,398.00
2013,08,01,16,30,352.00
2013,08,01,16,31,334.00
2013,08,01,16,32,366.90
2013,08,01,16,33,428.70
2013,08,01,16,34,450.70
2013,08,01,16,35,426.70
2013,08,01,16,36,398.60
2013,08,01,16,37,407.50
2013,08,01,16,38,418.30
2013,08,01,16,39,391.20
2013,08,01,16,40,373.70
2013,08,01,16,41,384.00
2013,08,01,16,42,378.50
2013,08,01,16,43,346.30
2013,08,01,16,44,315.90
2013,08,01,16,45,296.90
2013,08,01,16,46,292.00
2013,08,01,16,47,313.40
2013,08,01,16,48,332.80
2013,08,01,16,49,330.90
2013,08,01,16,50,314.60
2013,08,01,16,51,295.50
2013,08,01,16,52,287.30
2013,08,01,16,53,291.30
2013,08,01,16,54,297.40
2013,08,01,16,55,288.30
2013,08,01,16,56,279.00
2013,08,01,16,57,283.50
2013,08,01,16,58,293.30
2013,08,01,16,59,299.60
2013,08,01,17,00,303.20
2013,08,01,17,01,300.70
2013,08,01,17,02,294.00
2013,08,01,17,03,288.90
2013,08,01,17,04,280.30
2013,08,01,17,05,266.30
2013,08,01,17,06,250.20
2013,08,01,17,07,238.50
2013,08,01,17,08,233.30
2013,08,01,17,09,226.50
2013,08,01,17,10,216.60
2013,08,01,17,11,214.00
2013,08,01,17,12,220.20